Temp
67 67 67 67 68 68 67 67 68 68 68 69 69 68 69 69 67 66 66 65 65 66 65 64 64 64 65 64 65 65 65 65 64 64 64 63 64 64 64 63 63 60 59 58 57 54 51 50 48 48 50 53
65 66 66 66 67 67 67 67 67 67 68 69 69 68 68 67 65 65 65 65 65 65 65 64 64 64 64 64 64 64 64 64 64 63 63 63 63 63 63 62 62 60 59 58 57 53 51 49 48 47 49 53
68 64 65 65 65 66 66 66 66 67 67 67 68 67 66 65 63 64 64 64 64 65 65 64 63 63 64 64 64 64 64 63 63 63 62 63 62 62 62 61 59 58 58 57 55 53 50 48 48 47 50 52
70 65 63 64 64 64 64 65 65 65 66 66 64 64 64 62 64 63 65 63 65 64 64 63 63 63 63 64 64 63 63 63 63 62 62 62 62 61 60 60 58 57 56 55 54 51 49 48 47 52 54 50
69 69 62 64 63 63 63 64 64 64 64 64 63 63 61 60 66 67 66 65 66 63 65 60 59 62 63 63 64 63 63 62 62 62 62 62 61 60 59 58 57 56 55 54 52 50 49 47 52 52 51 51
66 68 65 68 68 67 66 64 63 65 67 63 68 62 65 67 67 67 66 66 62 65 64 61 58 60 61 62 63 63 62 62 62 62 61 61 60 59 58 56 56 55 53 52 50 49 47 51 52 49 49 49
65 67 68 68 68 67 65 66 66 67 67 68 68 68 67 67 68 67 67 66 63 63 60 62 57 58 60 61 62 61 62 61 61 61 61 61 60 59 57 56 56 55 53 51 48 47 49 51 51 50 49 49
66 67 68 68 68 68 68 67 66 67 67 67 68 68 68 68 67 66 67 60 56 57 62 61 57 58 59 59 60 59 61 61 61 61 60 60 59 56 53 54 54 55 54 52 51 51 52 51 50 49 50 50
65 66 67 67 68 67 68 67 67 67 67 66 66 66 67 67 66 64 65 63 62 63 63 61 60 60 60 61 60 56 60 61 61 61 60 60 56 54 54 53 53 53 53 52 52 52 53 51 49 49 49 50
65 64 65 66 67 66 67 66 66 66 66 65 65 65 65 65 63 63 63 62 61 61 62 61 60 60 60 60 59 59 59 60 60 59 58 55 55 55 54 53 54 53 52 53 53 52 51 51 49 50 49 50
65 64 65 66 66 65 65 66 65 65 65 65 65 64 64 63 63 62 62 61 60 60 60 60 60 60 60 58 58 60 60 59 59 59 58 56 54 54 54 53 53 51 51 51 51 51 50 50 49 50 49 49
63 64 64 64 64 64 64 64 64 65 65 65 64 63 64 63 63 62 61 60 60 59 59 60 59 60 59 58 59 59 59 58 59 58 58 57 54 53 53 52 52 51 51 49 49 50 49 49 48 48 49 49
61 63 63 63 63 63 62 64 64 65 65 64 64 63 62 63 62 62 61 60 60 59 58 59 58 58 58 58 58 57 57 57 57 57 56 55 54 53 51 51 51 51 50 50 50 49 48 48 48 47 48 48
61 62 61 61 62 63 63 63 64 64 64 64 63 62 61 61 62 62 61 60 60 58 57 57 56 57 57 57 57 56 56 57 56 56 56 55 54 53 51 51 51 51 50 49 50 49 49 48 48 47 47 46
62 62 61 61 62 62 61 62 63 63 63 63 63 63 61 61 61 62 61 61 60 59 58 56 55 56 56 56 56 56 56 57 56 56 55 54 53 53 52 52 52 50 50 49 49 48 48 48 48 48 48 47
61 61 61 61 61 61 61 61 61 61 62 61 62 62 60 60 60 61 61 60 59 58 58 57 55 55 55 55 56 55 56 56 56 56 55 55 54 53 53 52 51 51 50 49 49 48 47 48 47 47 47 46
60 61 61 60 60 61 60 60 60 60 60 60 61 60 59 59 60 60 60 60 59 57 58 57 54 54 54 55 55 55 56 55 55 54 54 53 52 52 52 51 50 49 50 49 48 48 47 47 46 47 47 46
57 58 59 60 61 61 60 60 59 59 60 60 60 59 58 57 58 58 60 60 59 58 58 57 55 54 54 55 55 54 54 53 53 53 52 51 50 49 50 49 49 48 48 49 49 47 47 47 46 46 45 45
55 56 57 58 59 60 59 59 59 59 60 59 59 59 59 57 56 57 57 58 58 57 57 57 55 54 55 55 53 53 53 53 53 53 51 50 49 49 49 49 49 48 48 48 47 47 47 46 46 46 45 45
56 56 56 56 55 57 58 58 58 58 59 59 59 59 58 57 56 56 56 56 56 56 56 56 56 55 55 53 53 53 53 53 52 52 51 51 50 48 47 48 48 48 48 48 47 47 47 46 46 45 45 44
54 56 56 56 56 55 55 56 56 57 58 58 58 58 58 57 56 55 55 56 55 55 55 55 55 56 54 52 53 52 52 51 52 51 49 50 50 51 48 48 47 47 48 48 47 47 46 46 45 45 45 44
53 54 56 56 55 55 55 55 55 56 56 56 57 57 57 56 56 55 55 55 55 54 55 55 55 55 53 52 52 52 51 51 52 52 51 49 49 50 50 48 47 46 47 47 46 46 45 45 44 45 45 45
51 52 54 55 56 56 55 55 54 54 54 54 55 55 55 56 55 55 54 54 54 54 54 54 54 54 52 51 51 51 50 50 50 50 50 50 48 49 50 49 49 48 47 45 44 44 44 44 44 45 45 44
50 49 48 49 52 53 54 54 52 52 52 52 52 53 53 54 53 54 54 53 54 53 53 53 53 52 51 51 51 50 49 49 49 48 48 49 48 47 48 50 50 49 47 45 44 43 44 44 44 43 43 43
48 47 46 45 47 48 52 52 53 53 52 51 51 51 51 50 51 51 52 52 53 52 51 52 53 52 51 51 50 50 49 50 49 49 49 49 49 46 45 46 48 48 47 44 42 43 42 43 43 43 42 42
48 48 47 46 44 44 45 49 50 51 52 51 51 51 51 51 51 51 51 51 52 52 51 51 51 51 50 50 49 50 50 50 48 49 49 49 47 48 45 44 46 45 45 42 41 40 40 41 43 43 42 42
47 48 48 48 47 47 46 46 47 47 47 48 48 49 49 50 50 51 50 50 50 50 51 51 50 50 50 49 49 48 48 48 48 48 47 48 46 44 46 46 46 44 46 43 44 46 44 41 39 39 38 40
49 49 49 49 49 49 48 46 46 44 43 42 43 43 45 45 45 45 47 48 49 50 50 50 50 50 49 49 49 48 47 47 47 47 47 47 47 47 43 44 43 44 45 47 44 37 39 42 43 40 37 37
47 47 47 48 48 49 48 49 49 49 49 48 48 47 47 47 47 45 45 47 48 50 49 49 49 49 49 49 49 48 48 47 47 47 47 47 47 47 45 43 42 42 44 46 49 46 42 39 38 39 45 40
46 45 44 44 43 42 43 43 44 44 44 46 47 47 50 50 50 48 48 48 49 49 49 49 49 48 48 48 48 47 48 48 48 47 47 47 47 47 48 47 43 40 42 44 46 48 50 49 42 39 44 42
46 45 45 44 43 43 42 42 43 47 47 46 48 48 48 49 51 50 49 48 48 49 49 49 48 47 47 47 48 48 47 47 47 47 47 48 47 48 48 48 44 41 39 41 43 45 48 45 43 47 44 38
MSLP
1014.98 1015.10 1015.30 1015.46 1015.54 1015.58 1015.66 1015.70 1015.70 1015.70 1015.74 1015.70 1015.94 1016.18 1016.26 1016.42 1016.82 1017.10 1017.34 1017.62 1017.86 1018.02 1018.26 1018.58 1018.78 1018.90 1018.94 1019.02 1019.06 1019.10 1019.30 1019.42 1019.66 1019.90 1019.98 1020.10 1020.18 1020.22 1020.22 1020.50 1020.78 1021.34 1021.78 1021.98 1022.18 1022.66 1023.02 1023.14 1023.22 1023.18 1023.02 1022.78
1014.86 1014.98 1015.18 1015.34 1015.42 1015.50 1015.54 1015.58 1015.62 1015.62 1015.70 1015.66 1015.74 1015.94 1016.18 1016.42 1016.74 1017.06 1017.30 1017.54 1017.74 1017.86 1018.06 1018.34 1018.66 1018.82 1018.90 1018.98 1019.06 1019.18 1019.30 1019.54 1019.70 1019.86 1020.06 1020.18 1020.26 1020.34 1020.42 1020.70 1020.90 1021.42 1021.70 1021.94 1022.30 1022.74 1023.10 1023.18 1023.26 1023.30 1023.14 1022.86
1014.62 1014.86 1015.02 1015.18 1015.34 1015.42 1015.46 1015.54 1015.58 1015.62 1015.62 1015.70 1015.70 1015.86 1015.98 1016.42 1016.70 1017.02 1017.22 1017.46 1017.62 1017.78 1017.90 1018.18 1018.42 1018.70 1018.82 1018.82 1019.02 1019.18 1019.34 1019.50 1019.70 1019.90 1020.06 1020.10 1020.26 1020.42 1020.54 1020.98 1021.38 1021.66 1021.90 1022.14 1022.50 1022.94 1023.14 1023.26 1023.34 1023.38 1023.14 1022.98
1014.26 1014.62 1014.86 1015.02 1015.22 1015.30 1015.38 1015.46 1015.54 1015.54 1015.54 1015.66 1015.74 1015.86 1016.02 1016.30 1016.62 1016.90 1017.18 1017.42 1017.54 1017.66 1017.86 1018.06 1018.34 1018.54 1018.70 1018.66 1018.86 1019.10 1019.26 1019.46 1019.62 1019.78 1019.98 1020.14 1020.30 1020.54 1020.82 1021.14 1021.54 1021.82 1022.06 1022.38 1022.70 1023.02 1023.10 1023.26 1023.30 1023.06 1022.94 1023.14
1014.14 1014.30 1014.74 1014.90 1015.06 1015.18 1015.30 1015.38 1015.46 1015.50 1015.54 1015.62 1015.78 1015.86 1016.06 1016.26 1016.46 1016.66 1016.94 1017.26 1017.34 1017.58 1017.78 1018.02 1018.34 1018.50 1018.62 1018.66 1018.74 1018.98 1019.14 1019.42 1019.62 1019.82 1019.94 1020.10 1020.34 1020.62 1020.98 1021.26 1021.70 1021.98 1022.18 1022.46 1022.82 1022.98 1023.14 1023.22 1023.02 1023.02 1023.10 1023.06
1014.18 1014.22 1014.54 1014.66 1014.82 1015.02 1015.14 1015.30 1015.38 1015.46 1015.38 1015.50 1015.54 1015.86 1015.98 1016.06 1016.18 1016.38 1016.62 1016.86 1017.18 1017.38 1017.62 1017.94 1018.26 1018.50 1018.62 1018.66 1018.78 1018.86 1019.10 1019.30 1019.54 1019.74 1019.90 1020.06 1020.34 1020.70 1021.02 1021.50 1021.90 1022.14 1022.38 1022.66 1022.82 1022.98 1023.14 1023.06 1022.94 1023.14 1023.18 1023.14
1014.18 1014.22 1014.30 1014.50 1014.58 1014.74 1014.94 1015.02 1015.26 1015.18 1015.30 1015.22 1015.26 1015.46 1015.70 1015.82 1015.86 1016.10 1016.34 1016.58 1016.86 1017.10 1017.42 1017.70 1018.10 1018.42 1018.62 1018.66 1018.78 1018.94 1018.98 1019.22 1019.42 1019.62 1019.82 1019.98 1020.26 1020.66 1021.10 1021.62 1021.86 1022.06 1022.42 1022.66 1022.90 1023.02 1022.98 1022.74 1022.82 1022.90 1022.98 1022.98
1014.10 1014.14 1014.14 1014.18 1014.30 1014.42 1014.58 1014.74 1014.94 1014.94 1014.98 1015.02 1015.02 1015.10 1015.34 1015.46 1015.58 1015.90 1016.10 1016.54 1016.98 1017.22 1017.46 1017.74 1018.06 1018.30 1018.54 1018.70 1018.78 1018.90 1019.02 1019.06 1019.18 1019.46 1019.70 1019.94 1020.18 1020.78 1021.26 1021.70 1021.94 1021.98 1022.10 1022.30 1022.54 1022.58 1022.54 1022.54 1022.70 1022.74 1022.74 1022.70
1013.82 1013.90 1014.02 1014.02 1014.10 1014.22 1014.30 1014.42 1014.50 1014.58 1014.70 1014.78 1014.86 1015.02 1015.14 1015.22 1015.46 1015.74 1015.94 1016.34 1016.74 1016.94 1017.14 1017.42 1017.78 1018.10 1018.30 1018.42 1018.58 1018.94 1018.82 1018.90 1019.06 1019.18 1019.38 1019.70 1020.22 1020.78 1021.06 1021.46 1021.74 1021.90 1021.98 1022.10 1022.22 1022.26 1022.26 1022.38 1022.58 1022.62 1022.66 1022.66
1013.54 1013.82 1013.74 1013.74 1013.78 1013.98 1014.06 1014.14 1014.18 1014.26 1014.38 1014.50 1014.66 1014.78 1014.90 1015.14 1015.42 1015.62 1015.82 1016.10 1016.38 1016.70 1016.86 1017.10 1017.42 1017.66 1017.86 1018.06 1018.34 1018.62 1018.66 1018.74 1018.94 1019.14 1019.46 1019.86 1020.10 1020.46 1020.78 1021.14 1021.42 1021.66 1021.78 1021.82 1021.94 1022.02 1022.18 1022.26 1022.46 1022.46 1022.54 1022.62
1013.62 1013.50 1013.42 1013.42 1013.46 1013.58 1013.66 1013.74 1013.86 1013.90 1013.98 1014.06 1014.26 1014.50 1014.66 1014.86 1015.10 1015.38 1015.58 1015.90 1016.18 1016.42 1016.58 1016.78 1017.02 1017.26 1017.46 1017.78 1018.02 1018.22 1018.34 1018.46 1018.62 1018.86 1019.10 1019.46 1019.86 1020.18 1020.50 1020.86 1021.18 1021.50 1021.66 1021.74 1021.78 1021.90 1022.10 1022.18 1022.30 1022.38 1022.46 1022.58
1014.10 1013.70 1013.54 1013.42 1013.42 1013.54 1013.34 1013.54 1013.54 1013.54 1013.58 1013.74 1013.98 1014.18 1014.30 1014.54 1014.74 1015.02 1015.26 1015.54 1015.78 1016.02 1016.30 1016.38 1016.58 1016.82 1017.14 1017.38 1017.58 1017.82 1017.98 1018.18 1018.38 1018.58 1018.82 1019.14 1019.58 1020.02 1020.34 1020.74 1021.02 1021.26 1021.50 1021.70 1021.78 1021.82 1021.98 1022.10 1022.18 1022.26 1022.34 1022.46
1013.98 1013.90 1013.70 1013.58 1013.42 1013.26 1013.26 1013.34 1013.34 1013.34 1013.50 1013.62 1013.70 1013.94 1014.18 1014.30 1014.46 1014.66 1014.86 1015.06 1015.26 1015.58 1015.86 1016.02 1016.26 1016.46 1016.70 1016.94 1017.18 1017.46 1017.70 1017.86 1018.10 1018.34 1018.62 1018.98 1019.34 1019.74 1020.18 1020.50 1020.82 1021.02 1021.26 1021.42 1021.54 1021.66 1021.82 1021.98 1022.06 1022.18 1022.26 1022.34
1013.58 1013.54 1013.70 1013.66 1013.54 1013.38 1013.38 1013.22 1013.18 1013.26 1013.30 1013.38 1013.50 1013.66 1013.82 1013.94 1013.98 1014.10 1014.26 1014.54 1014.78 1015.06 1015.38 1015.58 1015.86 1016.10 1016.30 1016.54 1016.78 1017.10 1017.34 1017.50 1017.78 1018.02 1018.38 1018.74 1019.10 1019.46 1019.82 1020.10 1020.38 1020.66 1020.90 1021.14 1021.30 1021.46 1021.58 1021.74 1021.86 1021.98 1022.06 1022.22
1013.46 1013.42 1013.34 1013.38 1013.42 1013.46 1013.46 1013.42 1013.42 1013.34 1013.26 1013.22 1013.26 1013.26 1013.46 1013.62 1013.66 1013.70 1013.86 1014.02 1014.26 1014.58 1014.86 1015.22 1015.50 1015.66 1015.90 1016.18 1016.38 1016.66 1016.94 1017.22 1017.46 1017.74 1018.02 1018.34 1018.70 1019.10 1019.38 1019.70 1019.98 1020.30 1020.50 1020.78 1021.02 1021.22 1021.34 1021.50 1021.62 1021.74 1021.86 1022.02
1013.62 1013.46 1013.26 1013.22 1013.26 1013.26 1013.34 1013.46 1013.46 1013.42 1013.38 1013.34 1013.30 1013.38 1013.46 1013.46 1013.46 1013.46 1013.50 1013.62 1013.90 1014.14 1014.42 1014.70 1015.02 1015.30 1015.54 1015.70 1015.98 1016.26 1016.50 1016.90 1017.18 1017.46 1017.82 1018.18 1018.50 1018.82 1019.10 1019.38 1019.70 1019.98 1020.14 1020.42 1020.66 1020.90 1021.18 1021.30 1021.46 1021.58 1021.74 1021.86
1013.70 1013.46 1013.38 1013.26 1013.18 1013.06 1013.14 1013.22 1013.30 1013.30 1013.30 1013.34 1013.38 1013.46 1013.54 1013.66 1013.66 1013.58 1013.46 1013.46 1013.54 1013.82 1013.98 1014.26 1014.66 1014.98 1015.14 1015.30 1015.54 1015.90 1016.18 1016.62 1017.02 1017.38 1017.74 1018.14 1018.50 1018.74 1019.02 1019.22 1019.54 1019.86 1019.94 1020.10 1020.34 1020.66 1020.90 1021.10 1021.30 1021.42 1021.54 1021.70
1014.30 1013.90 1013.54 1013.34 1013.14 1013.06 1013.02 1012.94 1012.94 1012.94 1012.98 1013.06 1013.18 1013.30 1013.46 1013.62 1013.74 1013.78 1013.74 1013.70 1013.70 1013.82 1013.86 1014.02 1014.30 1014.50 1014.78 1014.98 1015.30 1015.66 1016.02 1016.34 1016.66 1017.02 1017.46 1017.86 1018.30 1018.62 1018.82 1019.02 1019.26 1019.62 1019.78 1019.86 1020.06 1020.42 1020.66 1020.86 1020.98 1021.18 1021.42 1021.46
1014.70 1014.30 1013.86 1013.54 1013.22 1013.02 1012.94 1012.86 1012.78 1012.66 1012.66 1012.70 1012.74 1012.86 1012.98 1013.22 1013.46 1013.66 1013.74 1013.74 1013.82 1013.90 1013.94 1013.94 1014.10 1014.30 1014.46 1014.82 1015.14 1015.50 1015.78 1015.98 1016.34 1016.66 1017.06 1017.42 1017.86 1018.22 1018.54 1018.70 1018.90 1019.22 1019.38 1019.54 1019.78 1020.06 1020.34 1020.58 1020.74 1020.94 1021.10 1021.22
1014.82 1014.46 1014.14 1013.82 1013.54 1013.26 1013.06 1012.90 1012.74 1012.58 1012.54 1012.42 1012.42 1012.42 1012.46 1012.66 1012.86 1013.14 1013.30 1013.46 1013.62 1013.66 1013.70 1013.74 1013.82 1013.98 1014.30 1014.66 1014.98 1015.30 1015.58 1015.78 1016.02 1016.22 1016.62 1016.98 1017.26 1017.70 1018.06 1018.30 1018.54 1018.82 1018.98 1019.14 1019.42 1019.70 1019.98 1020.18 1020.46 1020.66 1020.78 1020.94
1015.18 1014.66 1014.18 1013.90 1013.70 1013.50 1013.26 1013.06 1012.78 1012.54 1012.42 1012.30 1012.26 1012.22 1012.18 1012.22 1012.42 1012.58 1012.78 1012.94 1013.14 1013.26 1013.30 1013.38 1013.46 1013.58 1013.94 1014.38 1014.70 1014.98 1015.22 1015.42 1015.50 1015.78 1016.14 1016.42 1016.74 1016.86 1017.26 1017.70 1018.02 1018.34 1018.58 1018.78 1019.06 1019.34 1019.66 1019.86 1020.14 1020.26 1020.38 1020.58
1015.54 1014.98 1014.38 1013.94 1013.62 1013.50 1013.30 1013.14 1012.94 1012.74 1012.50 1012.34 1012.22 1012.10 1011.98 1011.98 1012.10 1012.18 1012.30 1012.46 1012.58 1012.70 1012.78 1012.90 1013.02 1013.18 1013.54 1013.98 1014.38 1014.62 1014.86 1014.94 1015.10 1015.26 1015.46 1015.74 1016.10 1016.26 1016.50 1016.90 1017.30 1017.66 1018.02 1018.34 1018.74 1019.02 1019.34 1019.58 1019.82 1019.94 1020.10 1020.26
1015.94 1015.34 1014.74 1014.18 1013.66 1013.34 1013.18 1013.02 1012.94 1012.78 1012.62 1012.42 1012.22 1012.06 1011.98 1011.94 1011.90 1011.90 1011.94 1012.10 1012.22 1012.30 1012.34 1012.42 1012.54 1012.74 1013.02 1013.42 1013.82 1014.10 1014.34 1014.50 1014.62 1014.70 1014.82 1014.98 1015.50 1015.90 1015.94 1016.10 1016.46 1016.82 1017.34 1017.94 1018.38 1018.66 1018.98 1019.26 1019.46 1019.62 1019.74 1019.94
1015.98 1015.78 1015.34 1014.70 1013.94 1013.46 1013.10 1012.82 1012.74 1012.62 1012.54 1012.42 1012.30 1012.18 1012.14 1012.06 1011.90 1011.70 1011.70 1011.78 1011.82 1011.90 1011.94 1012.02 1012.14 1012.30 1012.62 1012.90 1013.22 1013.46 1013.62 1013.70 1013.90 1014.18 1014.62 1014.94 1015.26 1015.74 1016.06 1016.18 1016.30 1016.62 1017.02 1017.62 1018.06 1018.46 1018.66 1018.86 1019.06 1019.30 1019.42 1019.62
1016.02 1015.74 1015.50 1015.26 1014.82 1014.18 1013.46 1013.10 1012.62 1012.26 1012.18 1012.22 1012.14 1012.10 1012.10 1012.06 1011.90 1011.74 1011.62 1011.58 1011.58 1011.54 1011.62 1011.66 1011.74 1011.98 1012.22 1012.46 1012.70 1012.82 1012.90 1013.18 1013.54 1013.90 1014.10 1014.38 1014.78 1015.22 1015.70 1016.10 1016.26 1016.58 1016.94 1017.38 1017.90 1018.18 1018.38 1018.42 1018.66 1018.94 1019.14 1019.22
1016.10 1015.82 1015.58 1015.30 1015.06 1014.82 1014.26 1013.42 1012.86 1012.46 1012.14 1012.14 1012.06 1011.94 1011.82 1011.70 1011.54 1011.58 1011.58 1011.54 1011.46 1011.38 1011.34 1011.30 1011.38 1011.50 1011.78 1012.14 1012.42 1012.54 1012.74 1013.02 1013.22 1013.58 1013.86 1014.10 1014.58 1014.86 1015.14 1015.50 1015.86 1016.30 1016.66 1017.14 1016.78 1017.26 1017.74 1017.98 1018.02 1018.34 1018.62 1018.70
1016.14 1015.74 1015.46 1015.18 1014.74 1014.34 1013.98 1013.70 1013.38 1013.06 1012.66 1012.46 1012.22 1011.98 1011.78 1011.58 1011.46 1011.30 1011.26 1011.30 1011.38 1011.34 1011.18 1011.06 1011.02 1011.10 1011.34 1011.62 1011.94 1012.26 1012.46 1012.62 1012.86 1013.06 1013.34 1013.54 1013.70 1014.38 1014.82 1014.98 1015.50 1015.86 1015.66 1015.70 1016.26 1016.18 1016.34 1016.18 1016.86 1017.78 1018.46 1018.42
1016.10 1015.74 1015.30 1014.78 1014.50 1014.14 1013.78 1013.42 1013.10 1012.94 1012.58 1012.50 1012.26 1011.98 1011.78 1011.66 1011.54 1011.42 1011.26 1011.10 1011.10 1011.10 1011.06 1010.94 1010.78 1010.82 1010.98 1011.18 1011.50 1011.74 1011.98 1012.14 1012.34 1012.66 1012.90 1013.14 1013.34 1013.54 1014.30 1014.50 1015.02 1015.34 1015.46 1015.10 1015.46 1016.62 1015.78 1015.10 1015.18 1014.86 1016.26 1017.18
1016.14 1015.62 1015.06 1014.54 1014.14 1013.70 1013.30 1012.86 1012.54 1012.14 1011.86 1011.74 1011.58 1011.50 1011.34 1011.26 1011.30 1011.26 1011.10 1010.90 1010.86 1010.78 1010.66 1010.66 1010.66 1010.62 1010.70 1010.82 1011.06 1011.38 1011.50 1011.62 1011.74 1012.02 1012.26 1012.50 1012.78 1012.82 1012.90 1013.66 1014.30 1014.98 1015.02 1014.78 1014.34 1014.14 1014.82 1015.46 1015.46 1014.26 1013.58 1015.70
1016.06 1015.74 1015.22 1014.66 1014.10 1013.62 1013.14 1012.82 1012.42 1012.30 1011.98 1011.58 1011.38 1011.26 1011.06 1010.94 1010.86 1010.82 1010.74 1010.62 1010.54 1010.54 1010.30 1010.14 1010.22 1010.42 1010.58 1010.66 1010.78 1010.94 1011.10 1011.22 1011.46 1011.62 1011.82 1012.02 1012.18 1012.38 1012.38 1012.46 1013.38 1014.22 1014.66 1014.54 1014.26 1013.74 1013.02 1012.78 1012.94 1013.26 1013.82 1014.50
1015.70 1015.42 1015.06 1014.62 1014.22 1013.74 1013.26 1012.78 1012.38 1012.10 1011.86 1011.66 1011.30 1011.10 1010.98 1010.70 1010.54 1010.54 1010.54 1010.38 1010.30 1010.18 1010.02 1009.82 1009.86 1010.14 1010.42 1010.46 1010.46 1010.58 1010.78 1010.82 1010.90 1011.14 1011.46 1011.78 1011.94 1011.82 1012.14 1012.26 1012.42 1013.06 1013.86 1014.66 1014.38 1014.06 1013.46 1013.86 1014.14 1013.34 1013.42 1013.98
Wind_Speed
13 13 15 17 17 17 17 18 17 18 17 16 17 16 16 14 16 15 14 14 14 14 14 13 13 12 13 13 12 12 12 11 11 11 11 11 10 11 11 11 11 11 9 9 8 9 7 6 6 4 1 1
11 12 14 16 16 17 17 17 17 17 18 17 17 17 16 14 13 14 15 15 15 15 14 13 14 13 13 13 13 12 12 11 12 12 12 11 11 10 10 9 8 9 9 8 8 9 9 8 6 5 1 1
12 13 13 14 14 15 15 17 17 18 18 16 14 14 15 13 13 14 14 15 15 15 14 14 14 14 13 14 14 14 13 13 12 12 12 11 11 11 10 9 9 9 9 9 9 10 10 9 8 6 3 1
12 14 13 14 14 13 14 14 16 16 17 16 13 11 11 14 14 13 12 14 13 15 14 13 12 14 14 13 14 14 14 13 12 12 12 11 11 10 10 10 10 10 10 10 10 10 10 9 7 3 1 2
10 11 13 13 14 13 13 14 14 15 14 14 13 11 10 10 13 13 12 13 12 14 12 12 11 13 14 14 14 14 13 13 13 13 13 11 11 11 11 9 9 9 10 11 11 10 9 8 3 2 1 1
6 8 12 14 15 15 15 14 14 14 15 15 15 14 11 11 11 11 11 11 13 11 12 11 12 12 13 14 13 13 13 14 13 14 13 12 12 12 10 10 7 8 9 10 10 10 9 5 2 3 3 2
7 10 10 13 13 12 16 16 16 14 15 14 15 15 13 12 11 11 11 10 11 10 11 11 14 13 14 13 13 13 13 13 13 13 13 14 12 12 12 10 6 7 7 6 10 9 6 3 3 3 2 2
8 9 11 11 11 11 12 13 13 14 13 13 14 13 14 11 11 11 10 9 10 8 9 8 13 15 14 12 12 9 11 11 13 14 14 12 13 11 9 8 6 5 5 6 6 5 4 3 3 2 2 1
10 10 10 10 11 11 11 12 12 12 12 12 13 14 11 11 9 10 9 9 10 10 10 9 10 11 11 10 9 4 9 9 6 9 8 8 8 8 9 8 7 6 5 5 5 4 3 3 2 2 1 1
10 10 10 11 11 11 11 11 11 11 11 11 12 11 11 9 8 9 9 9 10 10 10 10 10 10 10 10 9 8 8 8 7 7 6 7 8 8 8 8 7 6 5 5 5 4 4 3 3 2 2 1
8 10 11 10 11 11 11 11 11 11 11 11 12 12 11 10 10 10 10 10 10 11 10 10 10 10 10 10 9 10 9 9 9 8 8 8 8 7 8 8 7 6 6 4 5 4 4 4 3 3 3 2
8 8 9 10 10 11 12 11 11 11 11 11 11 12 11 12 10 11 11 11 11 11 10 11 10 10 10 10 9 10 9 9 9 9 8 8 8 8 7 7 7 6 6 5 5 5 5 5 4 4 3 3
9 9 8 9 9 11 12 11 11 11 10 10 10 11 11 12 11 11 11 11 12 10 11 11 10 10 10 10 9 10 9 10 10 9 8 8 8 7 7 7 7 6 6 5 5 5 5 5 4 4 3 3
9 10 10 9 9 9 9 10 11 11 10 10 10 10 12 13 12 12 12 12 11 11 12 10 10 10 10 10 10 10 11 10 10 10 9 9 9 9 8 8 7 7 6 6 6 5 5 5 5 4 4 3
10 10 10 10 9 8 8 8 8 8 9 9 10 11 12 13 13 12 12 12 12 11 11 10 10 11 10 10 10 11 11 10 10 10 10 10 9 9 8 8 7 7 7 7 6 6 6 5 5 4 4 3
10 10 10 10 9 9 9 8 7 7 8 8 8 9 9 11 12 12 11 12 11 12 11 11 11 11 11 11 10 11 11 11 10 10 9 10 9 9 8 7 7 7 7 7 7 7 7 6 5 5 4 4
11 9 9 9 9 9 8 8 8 9 8 8 7 7 7 9 10 10 10 11 11 12 11 11 11 11 11 11 10 10 12 12 10 9 8 9 8 8 7 7 7 7 7 7 7 7 7 6 6 5 5 4
9 10 10 9 9 8 8 8 9 10 9 9 8 8 8 8 9 9 9 8 9 9 10 10 11 11 10 10 10 10 10 11 10 10 10 9 8 8 8 8 8 7 8 7 6 7 7 6 6 6 5 5
11 10 9 9 9 8 8 8 8 9 9 9 9 9 9 10 10 10 9 8 8 8 9 9 9 10 10 9 9 10 10 10 10 10 11 10 10 9 9 9 8 8 8 8 8 7 7 7 6 6 6 6
11 10 8 8 8 8 9 8 9 8 9 9 9 9 9 10 11 12 12 11 10 9 10 10 9 9 8 10 9 9 9 10 11 11 10 11 11 10 10 10 9 8 8 8 8 7 7 6 7 6 6 6
12 10 9 8 7 7 7 7 8 8 8 8 9 9 9 10 11 12 13 13 12 11 11 11 10 9 10 9 10 10 10 11 10 11 11 11 12 12 10 11 11 9 9 8 8 8 7 7 7 6 6 6
11 10 9 7 6 5 5 6 6 7 7 8 8 9 9 10 10 11 13 14 13 12 12 12 11 10 10 11 10 10 10 11 11 12 12 12 13 13 11 11 12 11 10 8 8 8 8 8 7 7 7 6
11 11 9 7 7 5 5 4 4 5 5 6 7 9 10 10 10 10 12 13 13 12 12 12 12 11 11 11 11 11 12 12 13 13 14 14 12 12 12 11 12 11 10 9 8 7 9 8 8 7 7 6
9 9 10 10 9 7 5 4 4 3 4 5 6 7 9 10 10 10 10 12 13 13 12 12 11 12 11 12 12 13 14 14 13 15 14 14 13 13 11 10 9 10 9 8 8 8 7 8 9 9 8 8
11 10 9 8 9 9 8 6 5 3 3 3 4 6 7 9 9 10 11 11 12 12 12 12 11 11 11 12 12 13 13 13 13 13 14 13 12 14 12 10 9 10 9 8 6 6 8 8 9 10 10 10
10 9 9 9 8 7 8 7 6 5 3 3 4 5 6 6 7 9 10 10 11 12 12 12 11 11 11 11 11 12 12 13 13 14 13 12 10 11 13 11 12 10 11 9 10 9 8 8 8 9 10 11
11 11 10 9 10 8 7 6 6 5 5 4 4 4 5 6 6 7 8 9 10 10 11 12 11 11 10 12 12 11 13 13 14 14 16 16 13 11 11 10 10 13 15 10 10 8 6 9 8 7 7 8
13 13 13 11 10 10 8 7 6 7 6 6 5 5 5 5 5 7 8 9 9 10 10 12 12 11 10 11 12 12 12 13 15 14 14 14 14 12 12 12 11 14 15 12 11 9 11 8 8 10 10 10
14 13 12 10 10 8 7 6 6 5 4 5 5 4 4 4 5 7 8 8 10 10 11 11 11 11 10 11 12 12 13 13 14 15 15 16 15 16 14 13 10 13 15 17 14 10 7 6 9 12 4 10
12 12 12 12 11 11 9 9 7 7 8 8 7 7 7 7 5 5 7 8 9 10 10 10 11 11 11 11 11 11 12 12 12 15 15 16 15 17 16 13 12 12 13 15 16 16 12 6 5 6 9 8
12 13 12 12 12 11 11 11 9 10 9 8 8 7 8 7 7 5 6 7 8 9 9 9 9 11 12 11 11 11 12 13 13 12 14 13 15 15 14 15 13 13 12 11 13 13 14 5 2 0 8 8
Wind_Direction
200 201 207 206 206 203 202 198 196 192 196 190 190 189 195 187 188 190 186 188 189 192 190 190 193 197 197 195 198 195 192 194 189 193 195 194 196 194 201 157 188 150 180 181 176 161 163 142 118 108 91 95
202 204 206 208 209 204 203 200 198 196 195 199 192 190 190 190 183 188 188 189 190 195 192 191 191 195 196 195 197 195 193 191 196 195 196 194 193 199 199 181 188 184 186 187 179 165 161 137 123 119 153 95
201 204 204 206 210 207 204 201 200 200 197 202 198 193 184 180 176 186 190 190 192 196 193 193 188 195 193 196 194 195 197 195 196 198 199 196 198 196 189 179 187 189 190 184 177 171 147 135 134 140 169 115
203 199 204 203 205 209 204 204 201 203 202 197 204 195 184 178 171 176 189 190 194 196 195 188 194 191 196 195 195 195 196 198 199 197 197 197 196 191 174 191 188 187 186 179 176 159 140 137 149 174 113 120
208 202 195 205 204 208 205 203 202 205 205 198 197 194 189 159 176 186 192 190 196 192 194 181 185 191 194 200 195 196 198 199 199 199 200 195 197 189 184 193 180 186 181 177 170 147 141 148 187 120 127 180
201 206 198 210 210 211 208 205 203 203 206 200 202 195 188 192 192 193 191 191 194 188 190 177 172 186 196 199 200 199 201 200 200 201 202 196 194 191 189 165 172 180 177 167 152 145 148 183 158 154 162 184
213 210 206 211 212 211 212 209 205 205 205 204 205 200 200 197 197 193 189 191 185 190 176 181 165 177 194 200 199 201 204 200 203 201 202 203 189 186 156 168 187 178 167 156 147 151 178 193 174 146 158 171
212 212 212 209 210 212 209 208 205 206 204 204 203 202 202 198 193 190 190 161 145 154 165 164 166 175 189 197 202 203 209 212 204 203 203 194 197 149 138 171 187 182 178 166 178 189 188 184 151 177 172 182
213 211 212 210 209 210 210 207 202 203 201 201 198 198 198 196 185 182 189 176 177 189 188 181 179 179 190 191 193 148 203 200 192 200 195 193 141 151 157 176 188 192 188 188 186 192 190 165 164 171 197 196
214 210 213 211 209 207 208 208 205 203 203 201 199 196 198 188 177 182 189 181 183 190 187 181 183 185 190 193 185 183 194 191 181 173 149 145 161 158 168 173 188 188 193 192 190 189 179 177 176 194 187 200
226 215 218 217 212 208 210 209 207 205 204 204 198 195 193 189 189 189 192 184 185 184 184 188 185 185 188 184 185 190 193 190 181 177 171 163 166 165 167 174 177 180 188 190 191 185 181 183 184 190 188 192
262 243 229 224 219 216 216 212 212 210 208 203 197 193 196 195 195 192 194 191 189 189 187 194 188 186 185 186 187 187 192 186 184 181 178 174 164 165 169 174 178 182 182 186 190 190 187 186 186 194 189 183
247 259 251 240 229 221 218 218 217 214 211 206 199 196 196 194 197 195 196 193 193 187 190 192 184 185 188 186 186 181 189 189 185 183 177 177 173 175 177 180 186 184 185 187 192 195 188 189 193 188 196 191
242 238 249 250 246 245 232 227 222 217 215 209 203 200 197 198 201 198 197 195 192 187 189 189 183 186 187 187 184 181 191 189 187 185 183 182 182 182 185 187 190 186 186 191 190 195 191 191 194 193 196 192
252 248 244 243 247 248 248 244 240 233 226 216 213 209 200 201 204 203 201 198 193 192 190 188 185 192 188 188 188 185 189 188 190 188 186 185 184 186 191 193 187 191 191 190 191 193 192 193 192 195 195 195
272 263 254 250 246 243 244 248 252 248 240 236 230 223 210 207 207 209 206 202 194 194 191 191 191 191 190 191 188 186 188 186 187 188 188 187 189 189 190 193 189 193 195 193 194 189 194 191 194 196 195 196
302 288 275 265 255 251 243 237 240 245 245 244 241 237 231 223 222 218 217 209 202 193 196 193 188 192 193 192 188 183 187 179 179 180 180 181 179 187 191 194 193 189 203 199 194 188 191 191 196 196 196 199
329 309 298 288 277 267 254 247 242 239 239 236 238 237 233 230 230 233 232 230 219 204 205 199 194 195 194 193 184 178 178 178 180 183 181 179 179 187 192 196 196 190 202 204 195 191 189 194 196 192 198 203
354 336 317 300 289 281 270 264 254 248 241 237 232 230 227 219 220 227 233 235 232 218 218 214 205 200 199 190 178 178 185 183 183 185 183 180 183 186 194 199 199 198 202 202 198 193 187 196 195 193 200 199
10 3 348 328 312 297 289 277 270 261 253 247 239 230 229 217 210 214 218 223 222 223 217 221 216 207 198 185 179 187 185 186 185 185 185 186 184 184 193 195 199 196 202 202 202 196 193 196 192 199 203 201
356 4 8 359 341 326 308 289 283 274 268 258 250 243 236 225 212 211 215 217 215 217 218 218 218 208 194 180 186 189 189 192 191 184 183 187 191 191 189 192 195 194 198 200 200 196 195 197 194 206 205 203
347 351 354 359 360 352 330 317 300 292 283 274 266 259 251 240 225 220 217 215 213 214 218 216 214 209 188 180 189 194 193 197 194 192 187 186 189 192 191 191 191 194 193 194 192 196 198 199 201 209 210 207
351 346 349 349 353 15 9 348 325 308 296 284 277 269 264 253 239 230 222 217 215 217 216 215 213 208 190 183 191 194 196 197 197 195 194 191 185 192 197 194 193 191 187 186 188 196 198 201 207 210 210 209
343 350 352 347 346 348 3 11 2 337 300 300 293 287 277 265 254 246 232 222 218 218 217 217 214 208 194 191 193 198 199 198 197 194 190 195 185 185 196 202 197 191 183 182 191 198 203 208 210 212 212 214
347 343 340 344 344 339 336 337 339 4 3 332 307 294 278 270 265 259 247 235 226 223 219 222 219 211 204 198 201 205 206 199 195 192 192 193 190 186 185 192 192 188 175 178 195 201 214 218 213 216 214 219
340 341 339 324 315 304 313 324 334 341 349 344 319 296 284 272 262 257 254 247 239 232 224 221 219 213 205 197 203 208 208 201 198 193 193 188 188 193 189 192 185 179 167 199 204 193 209 221 217 211 214 215
335 328 326 321 316 312 294 263 264 280 283 287 293 304 302 290 278 266 254 249 246 241 234 229 223 217 207 204 203 204 207 203 201 196 193 190 187 182 197 199 187 183 188 197 195 209 216 216 200 190 211 207
330 326 320 318 315 308 292 291 268 241 241 232 243 267 247 257 256 263 258 252 240 239 238 234 231 227 216 209 205 207 206 204 203 196 195 194 195 185 183 197 191 190 196 205 173 192 210 218 223 235 203 189
329 325 323 321 319 316 309 304 305 320 329 336 324 307 296 281 247 248 249 245 243 239 236 234 234 231 225 214 208 207 213 211 206 201 198 196 195 195 191 191 187 192 197 206 203 194 176 203 217 225 211 154
323 322 322 326 329 328 328 324 327 334 334 333 332 334 323 311 292 265 256 249 243 239 237 232 230 231 229 221 214 210 215 216 210 206 202 201 201 203 203 194 182 187 196 207 208 219 220 221 227 210 187 175
323 319 319 320 321 319 320 318 319 321 322 323 323 323 320 316 316 303 280 266 251 245 238 237 231 225 226 226 221 214 215 217 215 209 205 200 204 208 203 202 202 187 182 195 218 219 229 237 253 354 169 204